This demonstration page uses our WeatherBlox Daily Observations layout. Learn more.

Left ArrowRight Arrow

39.92423, -83.80882

Hourly Observations for August 28, 2016

Temp ( °F °C ) Dew Point ( °F °C ) Humidity (%) Winds ( mph kmh ) Pressure ( in mb ) Visibility ( mi km ) Precip ( " mm )
12:56 am 00:56 Clear with Mist and Fog 68 20 68 20 100 100 N N/A 30.15 1021 5 8.0467 N/A
1:56 am 01:56 Clear 68 20 67 19.4 96 96 N N/A 30.14 1021 10 16.0934 N/A
2:56 am 02:56 Clear 67 19.4 66 18.9 97 97 N N/A 30.14 1021 9 14.48406 N/A
3:56 am 03:56 Clear 68 20 67 19.4 96 96 N N/A 30.15 1021 10 16.0934 N/A
4:56 am 04:56 Clear 67 19.4 66 18.9 97 97 N N/A 30.16 1021 10 16.0934 N/A
5:56 am 05:56 Clear 67 19.4 66 18.9 97 97 N N/A 30.17 1022 10 16.0934 N/A
6:56 am 06:56 Clear 67 19.4 66 18.9 97 97 NNW 3 6 30.19 1022 10 16.0934 N/A
7:56 am 07:56 Sunny 68 20 68 20 100 100 N N/A 30.2 1023 10 16.0934 N/A
8:56 am 08:56 Sunny 73 22.8 70 21.1 90 90 E 3 6 30.22 1023 10 16.0934 N/A
9:56 am 09:56 Sunny 77 25 71 21.7 82 82 NE 3 6 30.22 1023 10 16.0934 N/A
10:56 am 10:56 Sunny 82 27.8 70 21.1 67 67 NNW 7 11 30.22 1024 10 16.0934 N/A
11:56 am 11:56 Sunny 83 28.3 71 21.7 67 67 N 5 7 30.22 1023 10 16.0934 N/A
12:56 pm 12:56 Sunny 85 29.4 72 22.2 65 65 N N/A 30.21 1023 10 16.0934 N/A
1:56 pm 13:56 Sunny 85 29.4 73 22.8 68 68 SSE 5 7 30.2 1023 10 16.0934 N/A
2:56 pm 14:56 Partly Cloudy 87 30.6 75 23.9 67 67 VRB 3 6 30.18 1022 10 16.0934 N/A
3:56 pm 15:56 Mostly Sunny 88 31.1 72 22.2 59 59 N N/A 30.15 1021 10 16.0934 N/A
4:56 pm 16:56 Sunny 89 31.7 71 21.7 55 55 VRB 3 6 30.15 1021 10 16.0934 N/A
5:23 pm 17:23 Sunny with Nearby Thunderstorms 88 31 72 22 59 59 N 5 7 30.12 1020 10 16.0934 N/A
5:38 pm 17:38 Sunny 88 31 72 22 59 59 N N/A 30.12 1020 10 16.0934 N/A
5:51 pm 17:51 Sunny with Nearby Thunderstorms 88 31 72 22 59 59 N 5 7 30.12 1020 10 16.0934 N/A
5:56 pm 17:56 Sunny with Nearby Thunderstorms 87 30.6 72 22.2 61 61 N N/A 30.14 1021 10 16.0934 N/A
6:07 pm 18:07 Sunny 88 31 72 22 59 59 N N/A 30.09 1019 10 16.0934 N/A
6:56 pm 18:56 Partly Cloudy 84 28.9 73 22.8 70 70 E 3 6 30.15 1021 10 16.0934 N/A
7:28 pm 19:28 Sunny with Nearby Thunderstorms 84 29 73 23 70 70 N N/A 30.12 1020 10 16.0934 N/A
7:39 pm 19:39 Sunny with Nearby Thunderstorms 82 28 73 23 74 74 NE 3 6 30.12 1020 10 16.0934 N/A
7:48 pm 19:48 Partly Cloudy with Thunderstorms 82 28 73 23 74 74 N 5 7 30.12 1020 10 16.0934 N/A
7:56 pm 19:56 Mostly Cloudy with Thunderstorms 82 27.8 72 22.2 72 72 NE 14 22 30.17 1022 10 16.0934 N/A
8:56 pm 20:56 Cloudy with Heavy Thunderstorms 70 21.1 67 19.4 90 90 SW 9 15 30.22 1024 10 16.0934 0.06 1.524
9:19 pm 21:19 Cloudy with Heavy Thunderstorms 70 21 68 20 94 94 S 23 37 30.21 1023 2 3.21868 0.56 14.224
9:26 pm 21:26 Cloudy with Heavy Thunderstorms 70 21 68 20 94 94 S 9 15 30.24 1024 3 4.82802 0.65 16.51
9:56 pm 21:56 Mostly Cloudy with Light Thunderstorms 69 20.6 66 18.9 90 90 ESE 16 26 30.25 1024 10 16.0934 0.93 23.622
10:38 pm 22:38 Partly Cloudy with Rain 68 20 66 19 94 94 W 10 17 30.21 1023 10 16.0934 0.01 0.254
10:56 pm 22:56 Mostly Cloudy with Light Rain 69 20.6 67 19.4 93 93 SSW 10 17 30.2 1023 10 16.0934 0.02 0.508

Powered by AerisWeather